EWG478 ESGG-EDDH

Flight info

Callsign EWG478
Flight time 1h 2m
Altitude 36000
Route VADIN DCT ALASA/N0421F350 M852 EKERN/N0355F230 T905 BOGMU BOGMU3S
Aircraft A320/M-SDE3FGHIRWY/LB1

Departure

Time 2026-04-25 19:16
Airport Göteborg Landvetter Airport (ESGG)

Arrival

Time 2026-04-25 20:18
Airport Hamburg Helmut Schmidt Airport (EDDH)
Time Latitude Longitude Altitude Speed Heading
2026-04-25 18:42 57.67046 12.29570 516 ft 0 kts 116°
2026-04-25 18:43 57.67047 12.29570 516 ft 0 kts 116°
2026-04-25 19:04 57.67059 12.29522 516 ft 4 kts 116°
2026-04-25 19:04 57.67069 12.29484 516 ft 4 kts 121°
2026-04-25 19:05 57.67108 12.29470 516 ft 4 kts 208°
2026-04-25 19:05 57.67113 12.29475 516 ft 0 kts 206°
2026-04-25 19:10 57.67076 12.29441 516 ft 15 kts 206°
2026-04-25 19:10 57.66985 12.29357 516 ft 11 kts 210°
2026-04-25 19:11 57.66992 12.29272 516 ft 9 kts 290°
2026-04-25 19:11 57.66975 12.29124 516 ft 16 kts 208°
2026-04-25 19:11 57.66862 12.29021 516 ft 20 kts 206°
2026-04-25 19:11 57.66722 12.28892 516 ft 24 kts 205°
2026-04-25 19:12 57.66670 12.28754 514 ft 15 kts 307°
2026-04-25 19:12 57.66656 12.28648 512 ft 6 kts 186°
2026-04-25 19:12 57.66578 12.28593 512 ft 17 kts 205°
2026-04-25 19:12 57.66444 12.28472 511 ft 26 kts 206°
2026-04-25 19:13 57.66268 12.28311 511 ft 29 kts 206°
2026-04-25 19:13 57.66080 12.28141 509 ft 31 kts 206°
2026-04-25 19:13 57.65883 12.27960 507 ft 32 kts 205°
2026-04-25 19:13 57.65694 12.27788 504 ft 29 kts 205°
2026-04-25 19:14 57.65506 12.27616 502 ft 31 kts 206°
2026-04-25 19:14 57.65373 12.27497 492 ft 33 kts 206°
2026-04-25 19:14 57.65109 12.27257 492 ft 32 kts 206°
2026-04-25 19:14 57.64918 12.27084 484 ft 17 kts 206°
2026-04-25 19:15 57.64892 12.26913 484 ft 17 kts 321°
2026-04-25 19:15 57.64998 12.26831 485 ft 17 kts
2026-04-25 19:15 57.65163 12.26959 492 ft 51 kts 25°
2026-04-25 19:15 57.65695 12.27441 503 ft 115 kts 26°
2026-04-25 19:16 57.66567 12.28242 586 ft 158 kts 25°
2026-04-25 19:16 57.67571 12.29206 1176 ft 163 kts 22°
2026-04-25 19:16 57.68663 12.30241 1677 ft 188 kts 23°
2026-04-25 19:16 57.69812 12.31466 2538 ft 197 kts 36°
2026-04-25 19:17 57.70421 12.33831 3386 ft 219 kts 79°
2026-04-25 19:17 57.70172 12.36748 4256 ft 232 kts 99°
2026-04-25 19:17 57.69625 12.39625 4877 ft 235 kts 104°
2026-04-25 19:17 57.68924 12.42418 5035 ft 241 kts 122°
2026-04-25 19:18 57.67629 12.44462 5060 ft 254 kts 150°
2026-04-25 19:18 57.65801 12.45406 5070 ft 287 kts 172°
2026-04-25 19:18 57.63815 12.45872 5086 ft 293 kts 172°
2026-04-25 19:18 57.61751 12.46107 5493 ft 302 kts 185°
2026-04-25 19:19 57.59712 12.45374 6594 ft 297 kts 200°
2026-04-25 19:19 57.57820 12.43805 7551 ft 297 kts 210°
2026-04-25 19:19 57.55970 12.42068 8527 ft 299 kts 210°
2026-04-25 19:19 57.54737 12.40909 9155 ft 300 kts 210°
2026-04-25 19:20 57.52226 12.38549 10284 ft 309 kts 211°
2026-04-25 19:20 57.50236 12.36671 10586 ft 332 kts 211°
2026-04-25 19:20 57.48135 12.34695 11197 ft 342 kts 211°
2026-04-25 19:20 57.45999 12.32685 11984 ft 346 kts 213°
2026-04-25 19:21 57.44001 12.30218 12789 ft 344 kts 225°
2026-04-25 19:21 57.40812 12.23774 14327 ft 343 kts 238°
2026-04-25 19:21 57.39279 12.20338 14970 ft 348 kts 238°
2026-04-25 19:22 57.37720 12.16853 15590 ft 354 kts 239°
2026-04-25 19:22 57.36132 12.13318 16212 ft 359 kts 239°
2026-04-25 19:22 57.32871 12.06100 17420 ft 371 kts 241°
2026-04-25 19:23 57.31203 12.02421 18025 ft 376 kts 241°
2026-04-25 19:23 57.27802 11.94934 18963 ft 388 kts 244°
2026-04-25 19:23 57.26050 11.91081 19430 ft 394 kts 244°
2026-04-25 19:24 57.24269 11.87179 19922 ft 400 kts 244°
2026-04-25 19:24 57.22463 11.83235 20422 ft 405 kts 244°
2026-04-25 19:24 57.18773 11.75207 21399 ft 415 kts 245°
2026-04-25 19:25 57.14861 11.67121 22336 ft 439 kts 236°
2026-04-25 19:25 57.12357 11.63643 22784 ft 464 kts 224°
2026-04-25 19:25 57.09395 11.60943 23182 ft 485 kts 213°
2026-04-25 19:26 57.06259 11.58579 23632 ft 488 kts 213°
2026-04-25 19:26 57.03108 11.56188 24021 ft 492 kts 213°
2026-04-25 19:26 56.99934 11.53769 24427 ft 495 kts 213°
2026-04-25 19:26 56.96747 11.51334 24832 ft 497 kts 213°
2026-04-25 19:27 56.93551 11.48887 25237 ft 500 kts 213°
2026-04-25 19:27 56.91422 11.47258 25506 ft 501 kts 213°
2026-04-25 19:27 56.87134 11.43989 26034 ft 505 kts 213°
2026-04-25 19:27 56.83879 11.41515 26389 ft 507 kts 213°
2026-04-25 19:28 56.80624 11.39046 26840 ft 507 kts 213°
2026-04-25 19:28 56.77356 11.36581 27250 ft 509 kts 213°
2026-04-25 19:28 56.74069 11.34109 27635 ft 512 kts 213°
2026-04-25 19:28 56.70766 11.31624 28011 ft 514 kts 213°
2026-04-25 19:29 56.67455 11.29135 28377 ft 517 kts 213°
2026-04-25 19:29 56.64120 11.26634 28750 ft 519 kts 213°
2026-04-25 19:29 56.60801 11.24146 29107 ft 522 kts 213°
2026-04-25 19:29 56.57444 11.21636 29454 ft 523 kts 213°
2026-04-25 19:30 56.54075 11.19129 29856 ft 524 kts 213°
2026-04-25 19:30 56.50689 11.16615 30184 ft 526 kts 213°
2026-04-25 19:30 56.47295 11.14096 30486 ft 528 kts 213°
2026-04-25 19:30 56.43891 11.11576 30803 ft 529 kts 213°
2026-04-25 19:31 56.40476 11.09052 31112 ft 530 kts 213°
2026-04-25 19:31 56.37063 11.06531 31418 ft 531 kts 213°
2026-04-25 19:31 56.33646 11.04014 31703 ft 529 kts 212°
2026-04-25 19:31 56.30252 11.01527 32276 ft 523 kts 212°
2026-04-25 19:32 56.26928 10.99098 32789 ft 519 kts 212°
2026-04-25 19:32 56.23592 10.96658 33255 ft 516 kts 213°
2026-04-25 19:32 56.20273 10.94231 33701 ft 513 kts 213°
2026-04-25 19:32 56.18044 10.92600 33990 ft 512 kts 213°
2026-04-25 19:33 56.13686 10.89412 34478 ft 509 kts 213°
2026-04-25 19:33 56.10407 10.87021 34831 ft 507 kts 212°
2026-04-25 19:33 56.07148 10.84653 35157 ft 504 kts 212°
2026-04-25 19:33 56.03903 10.82304 35556 ft 501 kts 212°
2026-04-25 19:34 56.00674 10.79970 35886 ft 499 kts 211°
2026-04-25 19:34 55.97457 10.77646 35998 ft 497 kts 211°
2026-04-25 19:34 55.91087 10.73066 36014 ft 491 kts 211°
2026-04-25 19:35 55.84758 10.68514 36015 ft 490 kts 211°
2026-04-25 19:35 55.78483 10.64021 36025 ft 488 kts 211°
2026-04-25 19:36 55.72176 10.59535 36027 ft 488 kts 211°
2026-04-25 19:36 55.65866 10.55062 36034 ft 488 kts 211°
2026-04-25 19:37 55.59560 10.50598 36035 ft 488 kts 211°
2026-04-25 19:37 55.53257 10.46142 36035 ft 488 kts 211°
2026-04-25 19:38 55.46949 10.41709 36025 ft 488 kts 211°
2026-04-25 19:38 55.40612 10.37271 36006 ft 491 kts 211°
2026-04-25 19:39 55.34252 10.32830 35958 ft 492 kts 211°
2026-04-25 19:39 55.27905 10.28402 36053 ft 495 kts 210°
2026-04-25 19:40 55.21496 10.23967 36062 ft 495 kts 210°
2026-04-25 19:40 55.15084 10.19561 36071 ft 495 kts 210°
2026-04-25 19:41 55.08678 10.15151 36032 ft 494 kts 210°
2026-04-25 19:41 55.04402 10.12217 36062 ft 494 kts 210°
2026-04-25 19:42 54.95892 10.06379 36092 ft 493 kts 210°
2026-04-25 19:42 54.89531 10.02035 36097 ft 493 kts 210°
2026-04-25 19:43 54.83130 9.97703 36061 ft 493 kts 209°
2026-04-25 19:43 54.76428 9.94668 36032 ft 503 kts 197°
2026-04-25 19:44 54.72980 9.93535 34992 ft 506 kts 197°
2026-04-25 19:44 54.69513 9.92419 33809 ft 507 kts 197°
2026-04-25 19:44 54.66048 9.91318 32707 ft 503 kts 198°
2026-04-25 19:44 54.62628 9.90238 31750 ft 496 kts 198°
2026-04-25 19:45 54.59258 9.89176 30826 ft 488 kts 198°
2026-04-25 19:45 54.55951 9.88134 30054 ft 478 kts 198°
2026-04-25 19:45 54.52718 9.87339 29100 ft 477 kts 188°
2026-04-25 19:45 54.49404 9.87853 28173 ft 482 kts 170°
2026-04-25 19:46 54.46260 9.89846 27199 ft 481 kts 157°
2026-04-25 19:46 54.43238 9.92284 26234 ft 477 kts 156°
2026-04-25 19:46 54.40251 9.94736 25323 ft 473 kts 156°
2026-04-25 19:46 54.37309 9.97167 24460 ft 468 kts 156°
2026-04-25 19:47 54.34393 9.99573 23624 ft 463 kts 156°
2026-04-25 19:47 54.31497 10.01947 22643 ft 457 kts 156°
2026-04-25 19:47 54.28644 10.04266 21813 ft 450 kts 157°
2026-04-25 19:47 54.25825 10.06540 20991 ft 444 kts 157°
2026-04-25 19:48 54.23039 10.08781 20174 ft 440 kts 157°
2026-04-25 19:48 54.20279 10.10997 19376 ft 435 kts 157°
2026-04-25 19:48 54.17552 10.13188 18675 ft 430 kts 157°
2026-04-25 19:48 54.14899 10.15317 17918 ft 424 kts 157°
2026-04-25 19:49 54.12242 10.17445 17124 ft 420 kts 157°
2026-04-25 19:49 54.11349 10.18159 16861 ft 418 kts 157°
2026-04-25 19:49 54.07009 10.21635 15609 ft 411 kts 157°
2026-04-25 19:49 54.04439 10.23694 15127 ft 406 kts 157°
2026-04-25 19:50 53.99326 10.27769 15078 ft 406 kts 157°
2026-04-25 19:50 53.96759 10.29797 15079 ft 406 kts 159°
2026-04-25 19:50 53.94137 10.31580 15086 ft 407 kts 162°
2026-04-25 19:51 53.91526 10.33254 15077 ft 394 kts 162°
2026-04-25 19:51 53.89001 10.34870 15081 ft 384 kts 162°
2026-04-25 19:51 53.86520 10.36460 15081 ft 375 kts 162°
2026-04-25 19:51 53.84109 10.38012 15082 ft 369 kts 162°
2026-04-25 19:52 53.81709 10.39557 15083 ft 369 kts 162°
2026-04-25 19:52 53.79312 10.41100 15045 ft 369 kts 162°
2026-04-25 19:52 53.76944 10.42729 15073 ft 367 kts 153°
2026-04-25 19:52 53.74944 10.45350 15088 ft 364 kts 128°
2026-04-25 19:53 53.73540 10.48803 15089 ft 361 kts 116°
2026-04-25 19:53 53.72281 10.52474 15083 ft 362 kts 115°
2026-04-25 19:53 53.71036 10.56169 14903 ft 360 kts 115°
2026-04-25 19:53 53.69807 10.59822 14392 ft 357 kts 114°
2026-04-25 19:54 53.68581 10.63459 13863 ft 354 kts 114°
2026-04-25 19:54 53.67364 10.67057 13284 ft 351 kts 115°
2026-04-25 19:54 53.66553 10.69463 12905 ft 349 kts 115°
2026-04-25 19:54 53.65760 10.71826 12527 ft 347 kts 115°
2026-04-25 19:55 53.64207 10.76500 11788 ft 342 kts 115°
2026-04-25 19:55 53.63060 10.79988 11265 ft 340 kts 115°
2026-04-25 19:55 53.61924 10.83475 11071 ft 338 kts 115°
2026-04-25 19:55 53.60769 10.86921 11068 ft 339 kts 121°
2026-04-25 19:56 53.59116 10.89752 11071 ft 341 kts 149°
2026-04-25 19:56 53.56971 10.91294 11070 ft 331 kts 176°
2026-04-25 19:56 53.54705 10.91719 11071 ft 326 kts 184°
2026-04-25 19:56 53.52446 10.91950 10892 ft 323 kts 185°
2026-04-25 19:57 53.50208 10.92186 10331 ft 320 kts 185°
2026-04-25 19:57 53.47997 10.92426 9758 ft 316 kts 184°
2026-04-25 19:57 53.45845 10.92648 9193 ft 311 kts 184°
2026-04-25 19:57 53.43698 10.92854 8611 ft 307 kts 184°
2026-04-25 19:58 53.41575 10.93044 8024 ft 304 kts 184°
2026-04-25 19:58 53.39479 10.93210 7456 ft 300 kts 184°
2026-04-25 19:58 53.37401 10.93351 7127 ft 297 kts 185°
2026-04-25 19:58 53.35331 10.93481 7066 ft 297 kts 185°
2026-04-25 19:59 53.33263 10.93605 7080 ft 298 kts 185°
2026-04-25 19:59 53.31191 10.93728 7076 ft 298 kts 185°
2026-04-25 19:59 53.29119 10.93849 7076 ft 298 kts 185°
2026-04-25 19:59 53.27045 10.93971 7075 ft 298 kts 185°
2026-04-25 20:00 53.24971 10.94093 7076 ft 299 kts 185°
2026-04-25 20:00 53.23597 10.94174 7057 ft 299 kts 184°
2026-04-25 20:00 53.20837 10.94324 6708 ft 293 kts 184°
2026-04-25 20:00 53.18802 10.94420 6346 ft 291 kts 184°
2026-04-25 20:01 53.14816 10.94413 5574 ft 280 kts 199°
2026-04-25 20:01 53.13117 10.93143 5189 ft 259 kts 229°
2026-04-25 20:01 53.12071 10.90888 4975 ft 241 kts 251°
2026-04-25 20:02 53.11342 10.88362 4973 ft 243 kts 254°
2026-04-25 20:02 53.10644 10.85800 4989 ft 243 kts 254°
2026-04-25 20:02 53.09954 10.83222 4984 ft 243 kts 255°
2026-04-25 20:02 53.09264 10.80549 5002 ft 267 kts 257°
2026-04-25 20:03 53.09027 10.77557 4975 ft 249 kts 284°
2026-04-25 20:03 53.09584 10.75032 4982 ft 223 kts 302°
2026-04-25 20:03 53.10354 10.72817 4989 ft 221 kts 304°
2026-04-25 20:03 53.11138 10.70657 4983 ft 221 kts 304°
2026-04-25 20:04 53.11937 10.68466 4988 ft 220 kts 304°
2026-04-25 20:04 53.12735 10.66285 4989 ft 220 kts 304°
2026-04-25 20:04 53.13533 10.64106 5000 ft 220 kts 304°
2026-04-25 20:04 53.14336 10.61924 4996 ft 221 kts 304°
2026-04-25 20:05 53.15141 10.59745 4993 ft 221 kts 304°
2026-04-25 20:05 53.15948 10.57560 4999 ft 221 kts 304°
2026-04-25 20:05 53.16754 10.55375 4993 ft 221 kts 304°
2026-04-25 20:05 53.17561 10.53186 4997 ft 221 kts 304°
2026-04-25 20:06 53.18366 10.51007 4991 ft 220 kts 304°
2026-04-25 20:06 53.19127 10.48935 4995 ft 204 kts 304°
2026-04-25 20:06 53.19856 10.46934 5006 ft 201 kts 304°
2026-04-25 20:06 53.20581 10.44940 5007 ft 201 kts 304°
2026-04-25 20:07 53.21302 10.42951 5001 ft 198 kts 304°
2026-04-25 20:07 53.21984 10.41054 4999 ft 183 kts 304°
2026-04-25 20:07 53.22624 10.39249 4995 ft 180 kts 304°
2026-04-25 20:07 53.23258 10.37458 4996 ft 179 kts 304°
2026-04-25 20:08 53.23894 10.35665 5000 ft 179 kts 304°
2026-04-25 20:08 53.24526 10.33878 4998 ft 179 kts 304°
2026-04-25 20:08 53.25296 10.32297 4996 ft 176 kts 326°
2026-04-25 20:08 53.26378 10.31320 4999 ft 177 kts 333°
2026-04-25 20:09 53.27501 10.30483 5002 ft 177 kts 334°
2026-04-25 20:09 53.28619 10.29674 5013 ft 177 kts 334°
2026-04-25 20:09 53.29747 10.28858 4817 ft 176 kts 334°
2026-04-25 20:09 53.30853 10.27973 4482 ft 176 kts 331°
2026-04-25 20:10 53.31922 10.26978 4187 ft 176 kts 329°
2026-04-25 20:10 53.32972 10.25952 3961 ft 172 kts 329°
2026-04-25 20:10 53.34010 10.24933 3998 ft 175 kts 329°
2026-04-25 20:10 53.35064 10.23899 3949 ft 174 kts 329°
2026-04-25 20:11 53.36109 10.22873 3639 ft 175 kts 329°
2026-04-25 20:11 53.37160 10.21841 3356 ft 175 kts 329°
2026-04-25 20:11 53.38227 10.20866 3106 ft 174 kts 333°
2026-04-25 20:11 53.39308 10.19976 3011 ft 173 kts 333°
2026-04-25 20:12 53.40395 10.19091 3011 ft 174 kts 333°
2026-04-25 20:12 53.41472 10.18215 3003 ft 174 kts 333°
2026-04-25 20:12 53.42566 10.17332 3002 ft 175 kts 333°
2026-04-25 20:12 53.43294 10.16746 3003 ft 175 kts 333°
2026-04-25 20:13 53.44758 10.15563 3006 ft 174 kts 333°
2026-04-25 20:13 53.45846 10.14660 3006 ft 175 kts 333°
2026-04-25 20:13 53.46929 10.13726 3007 ft 175 kts 332°
2026-04-25 20:13 53.48012 10.12786 3008 ft 175 kts 332°
2026-04-25 20:14 53.49092 10.11844 3004 ft 175 kts 332°
2026-04-25 20:14 53.50156 10.10916 3008 ft 175 kts 332°
2026-04-25 20:14 53.51234 10.09974 2989 ft 177 kts 332°
2026-04-25 20:14 53.52406 10.08949 2870 ft 190 kts 332°
2026-04-25 20:15 53.53573 10.07909 2576 ft 189 kts 331°
2026-04-25 20:15 53.54723 10.06857 2189 ft 188 kts 330°
2026-04-25 20:15 53.55860 10.05760 1752 ft 183 kts 329°
2026-04-25 20:15 53.56945 10.04785 1379 ft 173 kts 332°
2026-04-25 20:16 53.57974 10.03959 1127 ft 149 kts 332°
2026-04-25 20:16 53.58822 10.03279 1040 ft 123 kts 330°
2026-04-25 20:16 53.59553 10.02610 810 ft 119 kts 328°
2026-04-25 20:16 53.60300 10.01938 620 ft 122 kts 330°
2026-04-25 20:17 53.61038 10.01335 453 ft 118 kts 330°
2026-04-25 20:17 53.61770 10.00701 337 ft 118 kts 328°
2026-04-25 20:17 53.62520 10.00054 168 ft 124 kts 329°
2026-04-25 20:17 53.63280 9.99394 50 ft 119 kts 328°
2026-04-25 20:18 53.63893 9.98852 50 ft 75 kts 333°
2026-04-25 20:18 53.64247 9.98547 51 ft 45 kts 333°
2026-04-25 20:18 53.64475 9.98384 54 ft 31 kts 348°
2026-04-25 20:18 53.64660 9.98386 55 ft 17 kts
2026-04-25 20:19 53.64669 9.98389 54 ft 1 kts 13°
2026-04-25 20:19 53.64672 9.98391 54 ft 1 kts 21°
2026-04-25 20:19 53.64700 9.98445 53 ft 9 kts 74°
2026-04-25 20:19 53.64672 9.98522 53 ft 8 kts 151°
2026-04-25 20:20 53.64626 9.98564 52 ft 7 kts 151°
2026-04-25 20:20 53.64575 9.98608 52 ft 12 kts 154°
2026-04-25 20:20 53.64464 9.98703 51 ft 19 kts 153°
2026-04-25 20:20 53.64346 9.98804 50 ft 19 kts 153°
2026-04-25 20:21 53.64233 9.98902 49 ft 18 kts 153°
2026-04-25 20:21 53.64124 9.98996 49 ft 17 kts 153°
2026-04-25 20:21 53.64019 9.99088 48 ft 16 kts 153°
2026-04-25 20:21 53.63921 9.99172 48 ft 15 kts 153°
2026-04-25 20:22 53.63832 9.99255 48 ft 14 kts 147°
2026-04-25 20:22 53.63806 9.99286 48 ft 14 kts 143°
2026-04-25 20:22 53.63750 9.99379 47 ft 0 kts 127°
2026-04-25 20:22 53.63746 9.99386 47 ft 2 kts 127°
2026-04-25 20:23 53.63701 9.99491 48 ft 21 kts 126°
2026-04-25 20:23 53.63606 9.99713 48 ft 23 kts 126°
2026-04-25 20:23 53.63516 9.99922 50 ft 21 kts 126°
2026-04-25 20:23 53.63474 10.00017 49 ft 0 kts 126°
2026-04-25 20:24 53.63472 10.00023 49 ft 4 kts 126°
2026-04-25 20:24 53.63423 10.00138 48 ft 15 kts 125°
2026-04-25 20:25 53.63346 10.00230 47 ft 14 kts 175°
2026-04-25 20:25 53.63288 10.00264 48 ft 5 kts 110°
2026-04-25 20:25 53.63288 10.00318 48 ft 4 kts 73°
2026-04-25 20:25 53.63292 10.00356 48 ft 0 kts 85°